Location: Bernay
(48.6766°N, 2.9386°E)
Time: 01:03:48
(UTC+00:00)

SJ 16-02 - Pass Details

Date: 27 April 2026
Orbit: 582 x 592 km, 75.0° (Epoch: 19 May)

Event Time Altitude Azimuth Distance (km) Brightness Sun altitude
Rises 20:32:35 0° 343° (NNW) 2,822 5.8 -14.1°
Reaches altitude 10° 20:34:54 10° 350° (N) 1,916 4.7 -14.4°
Maximum altitude 20:39:00 44° 63° (ENE) 811 1.8 -14.9°
Enters shadow 20:40:56 26° 120° (ESE) 1,154 2.2 -15.1°
